OpenBCM V1.13 (Linux)

Packet Radio Mailbox

DB0FHN

[JN59NK Nuernberg]

 Login: GUEST





  
LU9DCE > KEP      23.05.19 22:03l 245 Lines 12027 Bytes #999 (0) @ WW
BID : 25216_LU9DCE
Read: GUEST DF7EAV DK3UZ
Subj: TLE 23 05
Path: DB0FHN<DB0BLO<DB0ERF<DB0RES<IR2UBX<IW8PGT<LU4ECL<GB7CIP<GB7YEW<KE0GB<
      CT2KCK<PY2BIL<LU9DCE
Sent: 190523/1841Z 25216@LU9DCE.TOR.BA.ARG.SOAM LinBPQ6.0.18

            __    _  _  ___  ____   ___  ____    ____  ____  ____
           (  )  / )( \/ _ \(    \ / __)(  __)  (  _ \(  _ \/ ___)
           / (_/\) \/ (\__  )) D (( (__  ) _)    ) _ ( ) _ (\___ \
           \____/\____/(___/(____/ \___)(____)  (____/(____/(____/
               ESTACION DE PACKET RADIO - BUENOS AIRES (GF05OM)
                   BOLETINES INFORMATIVOS PROGRAMADOS (BIP)
              28.125 USB @ 300 BAUD --- HELLOCODELINUX@GMAIL.COM

+----------------------------------------------------------------------------+
OSCAR 7
1  7530U 74089B   19143.13182965 -.00000030  00000-0  91643-4 0  9997
2  7530 101.7418 111.0674 0012522  39.8104  23.2417 12.53638167 37197
OSCAR 11 (UoSAT 2)
1 14781U 84021B   19143.38751689  .00000053  00000-0  12611-4 0  9994
2 14781  97.6126 169.3473 0009691  53.0198 307.1902 14.83085498894865
OSCAR 19 (LUSAT)
1 20442U 90005G   19142.43651667  .00000012  00000-0  20858-4 0  9991
2 20442  98.6470  84.4848 0010840 226.2323 133.7964 14.32925312532473
EYESAT A
1 22825U 93061C   19142.77265543 -.00000016  00000-0  11898-4 0  9993
2 22825  98.9022 130.7973 0009528  78.8314 281.3938 14.30058693338104
ITAMSAT
1 22826U 93061D   19143.20029699 -.00000007  00000-0  15138-4 0  9994
2 22826  98.8962 131.2294 0009995  67.8959 292.3282 14.30392245338366
RADIO ROSTO
1 23439U 94085A   19142.82027256 -.00000053 +00000-0 -30870-3 0  9997
2 23439 064.8132 159.5803 0146508 118.4741 243.1028 11.27568034004863
JAS 2
1 24278U 96046B   19143.37334424 -.00000038  00000-0  37971-6 0  9991
2 24278  98.5335 300.3582 0349527 308.3890  48.6330 13.53091218124240
TECHSAT 1B
1 25397U 98043D   19142.91274726 -.00000005  00000-0  16965-4 0  9992
2 25397  98.6873  83.3838 0002371 102.0143 258.1302 14.23665485 84069
ISS (ZARYA)
1 25544U 98067A   19143.51244390  .00000377  00000-0  13473-4 0  9995
2 25544  51.6419 123.7546 0001972  22.0841  78.0726 15.52695913171423
PCSAT
1 26931U 01043C   19143.14297956 -.00000024  00000-0  22713-4 0  9996
2 26931  67.0521  72.1880 0006387 279.9208  80.1172 14.30542304921176
SAUDISAT 1C
1 27607U 02058C   19142.57227052 -.00000049 +00000-0 +14054-4 0  9996
2 27607 064.5533 132.5098 0082081 261.7125 097.4663 14.75546746882902
CUTE-1
1 27844U 03031E   19142.49620300  .00000028  00000-0  32341-4 0  9990
2 27844  98.6844 151.1159 0011060 107.9688 252.2696 14.22177058824425
CUBESAT XI 4
1 27848U 03031J   19142.48059637  .00000019  00000-0  28482-4 0  9993
2 27848  98.6922 151.5946 0010856 118.1945 242.0330 14.21772141824274
MOZHAYETS 4
1 27939U 03042A   19143.37512787  .00000096  00000-0  25832-4 0  9996
2 27939  98.0367 279.7107 0013767 146.2219 213.9872 14.66779938836680
CUBESAT XI 5
1 28895U 05043F   19143.18881971  .00000079  00000-0  24050-4 0  9996
2 28895  97.9554 286.8345 0018183  77.0309 283.2923 14.63661418723614
CUTE-1.7+APD II
1 32785U 08021C   19142.72541400 +.00000151 +00000-0 +21932-4 0  9994
2 32785 097.5494 143.7123 0013011 359.8766 000.2446 14.88299435599604
DELFI C3
1 32789U 08021G   19142.72510760 +.00000561 +00000-0 +41580-4 0  9999
2 32789 097.4664 193.2022 0011412 210.0925 149.9648 15.06896008602804
SEEDS
1 32791U 08021J   19143.05767092  .00000147  00000-0  20248-4 0  9999
2 32791  97.5283 149.9743 0012528 333.3059  26.7513 14.90804686600140
YUBELEINY
1 32953U 08025A   19143.24582641  .00000020  00000-0  75656-4 0  9992
2 32953  82.5019 161.2126 0018976 182.8257 177.2717 12.43089605499026
PRISM (HITOMI)
1 33493U 09002B   19143.32051788  .00000859  00000-0  80869-4 0  9992
2 33493  98.1225  63.2743 0013525 270.9276  89.0395 14.96627412561205
KKS-1 (KISEKI)
1 33499U 09002H   19142.88699709 +.00000054 +00000-0 +16108-4 0  9991
2 33499 098.3519 340.7378 0007999 295.9388 064.0995 14.75434997554847
SWISSCUBE
1 35932U 09051B   19142.86938231 +.00000095 +00000-0 +32442-4 0  9997
2 35932 098.5855 308.0615 0006510 243.1667 116.8864 14.56276848512832
BEESAT
1 35933U 09051C   19143.14882450  .00000079  00000-0  28862-4 0  9994
2 35933  98.5884 310.0946 0004619 257.1031 102.9650 14.56367082513025
ITUPSAT 1
1 35935U 09051E   19143.39743291  .00000046  00000-0  21696-4 0  9994
2 35935  98.5995 310.5904 0006949 253.7219 106.3213 14.55528121512818
XIWANG-1 (HOPE-1)
1 36122U 09072B   19142.67808855 -.00000029 +00000-0 +35150-4 0  9996
2 36122 100.0731 146.3291 0008178 052.0345 308.1506 13.16349559453323
TISAT 1
1 36799U 10035E   19143.10836955  .00000347  00000-0  41080-4 0  9999
2 36799  98.1524 294.3851 0012637 167.1266 193.0276 14.91085665480808
JUGNU
1 37839U 11058B   19143.33164035  .00000303  00000-0  20065-4 0  9991
2 37839  19.9599 134.6242 0019052  37.1192  97.7534 14.12650882393520
SRMSAT
1 37841U 11058D   19142.63250947 +.00000306 +00000-0 +22660-4 0  9990
2 37841 019.9706 195.0828 0011643 259.6423 219.7514 14.10632117392779
M-CUBED/EXP-1 PRIME
1 37855U 11061F   19142.94740281  .00000937  00000-0  54781-4 0  9997
2 37855 101.7181  24.8170 0173798 156.0610 204.8807 15.05354856412755
HORYU 2
1 38340U 12025D   19143.06397614  .00000123  00000-0  26043-4 0  9997
2 38340  98.3312 180.8525 0010988 202.5834 157.4892 14.75709111377239
STRAND 1
1 39090U 13009E   19142.80358713 -.00000002 +00000-0 +14417-4 0  9990
2 39090 098.4910 349.2104 0009502 016.4444 343.7048 14.35083688326518
SOMP
1 39134U 13015E   19143.30764085  .00000931  00000-0  52008-4 0  9993
2 39134  64.8625 105.9118 0028466 308.8668  50.9920 15.20093882336581
BEESAT 3
1 39135U 13015F   19143.38076960  .00000737  00000-0  46496-4 0  9998
2 39135  64.8660 123.6060 0017177 324.6318  35.3667 15.17408378336254
BEESAT 2
1 39136U 13015G   19143.34198230  .00000476  00000-0  34015-4 0  9994
2 39136  64.8679 127.4733 0017722 307.4516  52.4997 15.16846204336179
CUBEBUG 1
1 39153U 13018D   19143.27060515  .00000126  00000-0  23427-4 0  9999
2 39153  97.9764 241.5469 0015515 285.2413  74.7083 14.80557085327901
ZACUBE
1 39417U 13066B   19143.15459727  .00000147  00000-0  24786-4 0  9991
2 39417  97.5636 158.1466 0060383 120.2625 240.4584 14.81102953297112
TRITON 1
1 39427U 13066M   19142.93745709 +.00000132 +00000-0 +29410-4 0  9998
2 39427 097.6742 121.9719 0112332 250.9470 107.9542 14.67828644294228
GOMX 1
1 39430U 13066Q   19143.36045650  .00000198  00000-0  45134-4 0  9991
2 39430  97.7445 101.6501 0151087 337.8888  21.5846 14.59242219292769
HUMSAT D
1 39433U 13066T   19143.12603317  .00000209  00000-0  25721-4 0  9991
2 39433  97.5558 191.7134 0031548  32.2366 328.0773 14.92169466299112
CUBEBUG 2
1 39440U 13066AA  19142.49580160  .00000146  00000-0  27179-4 0  9997
2 39440  97.6019 142.5401 0080469 172.2096 188.0386 14.75841569295960
FUNCUBE 1
1 39444U 13066AE  19143.03475392  .00000193  00000-0  29977-4 0  9992
2 39444  97.5618 159.9526 0059601 114.7787 245.9643 14.81918912295985
UWE-3
1 39446U 13066AG  19143.02036883  .00000147  00000-0  26092-4 0  9995
2 39446  97.5816 150.0236 0070954 146.0317 214.5469 14.78375990295323
SPROUT
1 39770U 14029E   19143.32653813  .00000609  00000-0  73553-4 0  9993
2 39770  97.8818 246.7959 0009329 163.5365 196.6166 14.87309307270919
UNISAT 6
1 40012U 14033C   19143.20044015  .00000132  00000-0  27040-4 0  9995
2 40012  97.7611  10.9487 0058181 181.8958 178.2040 14.73966815264781
DUCHIFAT 1
1 40021U 14033M   19142.82728732  .00000210  00000-0  27340-4 0  9997
2 40021  97.9238  67.3328 0013866 133.7408 226.4960 14.90607558267544
QB50P1
1 40025U 14033R   19142.81887460  .00000160  00000-0  23019-4 0  9997
2 40025  97.9066  62.5456 0013251 142.3370 217.8777 14.88927266267322
CHUBUSAT 1
1 40300U 14070C   19143.28870451  .00000609  00000-0  29492-4 0  9997
2 40300  97.3265 218.1336 0020010 144.8521 255.8974 15.22051038252009
NUDT-PHONESAT
1 40900U 15049B   19143.28568380  .00001624  00000-0  72694-4 0  9995
2 40900  97.4370 152.8811 0010978 279.1785 137.5870 15.22687069203647
ZDPS 2A
1 40901U 15049C   19143.30483785  .00000548  00000-0  30534-4 0  9995
2 40901  97.4590 149.5113 0012134 299.6018 154.9175 15.17681395203238
ZDPS 2B
1 40902U 15049D   19143.32707252  .00001096  00000-0  58014-4 0  9998
2 40902  97.4529 147.0751 0011982 296.8323 159.3620 15.17484355203219
XW-2A
1 40903U 15049E   19143.35736288  .00001490  00000-0  37238-4 0  9996
2 40903  97.3394 185.9694 0011920 236.9496 179.8855 15.41751997206197
KAITUO 1A
1 40904U 15049F   19143.32082781  .00000425  00000-0  26049-4 0  9991
2 40904  97.4662 145.7825 0013240 304.1693 153.3705 15.15341071203008
OBJECT G
1 40905U 15049G   19143.30897203  .00000374  00000-0  24010-4 0  9992
2 40905  97.4695 143.3580 0014289 298.2006 118.5873 15.14270935202885
XW-2C
1 40906U 15049H   19143.26715081  .00000687  00000-0  39554-4 0  9997
2 40906  97.4666 145.7854 0013295 295.2452 195.1215 15.15643069202998
XW-2D
1 40907U 15049J   19143.45115985  .00000300  00000-0  19138-4 0  9994
2 40907  97.4645 145.6432 0012661 291.0282 227.2028 15.15825290203031
LILACSAT 2
1 40908U 15049K   19143.42596005  .00000240  00000-0  16929-4 0  9996
2 40908  97.4768 144.5144 0014563 297.4639 199.0805 15.13780854202835
XW-2F
1 40910U 15049M   19143.28721273  .00000687  00000-0  37896-4 0  9991
2 40910  97.4620 147.4099 0013101 284.1472 132.6143 15.17240462203010
XW-2B
1 40911U 15049N   19143.41477134  .00000768  00000-0  43702-4 0  9994
2 40911  97.4671 146.2480 0012622 293.2363 214.9770 15.15759359202922
KAITUO 1B
1 40912U 15049P   19143.29251338  .00000813  00000-0  41441-4 0  9996
2 40912  97.4491 150.9901 0013223 265.3596 151.9832 15.19544597203301
TIANWANG 1C (TW-1C)
1 40926U 15051B   19143.39701568  .00008832  00000-0  13188-3 0  9995
2 40926  97.1368 189.6113 0010079 108.5721 307.4113 15.55220143206079
